Showing default

HAWK-8C, 59449

Orbit data source: Space-Track

HAWK-8C, 59449 is a payload satellite owned by HawkEye 360 (US) in LEO that was launched on Sun, 07 Apr 2024 UTC via an FALCON 9 launch vehicle from the Air Force Eastern Test Range (AFETR). Payload-class satellites include a variety of spacecraft equipped with specific instruments for various scientific and technological missions. These include communications satellites like Starlink; space stations such as the ISS; scientific satellites like the Hubble; Earth observation satellites from companies like Planet Labs, Umbra, and HawkEye 360; GPS; miniature CubeSats for education and research; and military/defense satellites.

Loading next visibility...
Identifier
59449, 2024-066H
Orbit
LEO
Country
Flag of USUS
Related business
Manufacturer
UTIAS-SFL
Mission
Operational Commercial Sigint
Bus & Motor
HAWK2G, Unknown motor
Mass
31 kg wet, 30 kg dry
Launch date (UTC)
2024-04-07 (2 years ago)
Launch vehicle
FALCON 9
Launch site
Air Force Eastern Test Range (AFETR)
Object type
Payload
Rocket body
Debris
Shape & HBR
Box + 2 Pan, 1.0 m
Radar Cross Section
0.240 m², Medium (>0.1 m² and < 1m²)

Expand to show TLE details & history
Last TLE update: 15 hours ago

TLE from 15 hours ago
0 HAWK-8C
1 59449U 24066H   26036.94425447  .00002493  00000-0  22359-3 0  9997
2 59449  45.6055 235.7289 0002040  88.7959 271.3155 14.98625752100134
Epoch: 2026-02-05T22:39Z
TLE epoch observation values (Epoch: 2026-02-05T22:39:43.586Z)
Latitude
-0.00006°
Longitude
119.70802°
Altitude
571.175 km
Speed
7.577 km/s
True Right ascension
15h 42m 54s
True Declination
0° 00' 00"
Sunlit
Object was in daylight at epoch
Visualization orbit readout
Latitude
Unknown
Longitude
Unknown
Altitude
Unknown
Speed
Unknown
Apparent Right ascension
Unknown
Apparent Declination
Unknown
Sunlit
N/A
Visualization observer readout
Local Sidereal Time
16:07:22
Azimuth
Unknown
Elevation
Unknown
Doppler factor
Unknown
Orbital elements
Apogee altitude
574.048 km
Perigee altitude
571.212 km
Semi-major axis
6,950.767 km
Eccentricity
0.0002
Inclination
45.6055°
RAAN
235.7289°
Arg. of periapsis
88.7959°
True anomaly
271.29213°
Mean anomaly
271.3155°
Eccentric anomaly
271.30381°
Mean motion
3.74536 °/min
Orbital period
96.12 mins
BSTAR
0.00022359
Loading maneuver chart data...
Computing Atmospheric mass density...
Loading historical data...
Loading historical data...
Loading historical data...
Loading historical data...
Loading historical data...
Loading historical data...
Loading historical data...

Documentation

Showing up to 5 results
|